Location: Newark
(44.6028°N, 124.0883°W)
Time: 23:52:41
(UTC+00:00)

N. Korean satellite - Pass Details

Date: 30 October 2020
Orbit: 452 x 504 km, 97.2° (Epoch: 24 November)

Event Time Altitude Azimuth Distance (km) Brightness Sun altitude
Rises 13:30:26 0° 18° (NNE) 2,476 10.3 -15.0°
Reaches altitude 10° 13:32:33 10° 25° (NNE) 1,597 9.4 -14.7°
Maximum altitude 13:35:50 44° 99° (E) 636 7.7 -14.1°
Drops below altitude 10° 13:39:06 10° 173° (S) 1,588 9.3 -13.5°
Sets 13:41:12 0° 180° (S) 2,460 10.2 -13.1°
